Regional Weather Roundup
Issued by NWS Upton, NY

Current Version | Previous Version | Text Only | Print | Product List | Glossary On
Versions: 1 2 3 4 5 6 7 8 9 10 11 12 13 14 15 16 17 18 19 20 21 22 23 24 25 26 27 28 29 30 31 32 33 34 35 36 37 38 39 40 41 42 43 44 45 46 47 48 49 50
895
ASUS41 KOKX 230508
RWROKX

REGIONAL WEATHER ROUNDUP
NATIONAL WEATHER SERVICE NEW YORK NY
100 AM EDT TUE MAY 23 2017

NOTE: "FAIR" INDICATES FEW OR NO CLOUDS BELOW 12,000 FEET WITH NO
SIGNIFICANT WEATHER AND/OR OBSTRUCTIONS TO VISIBILITY.

NYZ071-072-176-178-NJZ106-104-230600-
NEW YORK CITY METRO AREA

CITY           SKY/WX    TMP DP  RH WIND       PRES   REMARKS
Central Park   CLOUDY    60  58  92 W6        29.98S
Wall St Helipt CLOUDY    61  58  90 VRB3      29.97R
Bronx Bot Gard   N/A     59  57  94 NW5       29.98S
LaGuardia APRT CLOUDY    61  57  87 NW9       29.95R
Kennedy INTL   CLOUDY    62  61  96 NW8       29.96S
Breezy Point     N/A     57 N/A N/A NW8G14      N/A
Newark/Liberty CLOUDY    59  58  96 NW7       29.96S
Teterboro      CLOUDY    60  59  96 N5        29.95R FOG
$$

NYZ177-179-078>081-230600-
LONG ISLAND NEW YORK

CITY           SKY/WX    TMP DP  RH WIND       PRES   REMARKS
Jones Beach      N/A     59 N/A N/A NW3         N/A
Matinecock PT  NOT AVBL
Farmingdale    CLOUDY    60  59  96 N9        29.94S VSB 1/4
MacArthur/ISP  CLOUDY    59  59 100 N7        29.93S FOG
Shirley        CLOUDY    60  60 100 NW10      29.94S
Mt Sinai Harb    N/A    N/A N/A N/A CALM        N/A
Westhampton    CLOUDY    59  58  96 NW6       29.95F FOG
East Hampton   FOG       58  57  99 CALM      29.92F VSB 1/4
Montauk          N/A     58  58 100 CALM      29.93F
$$

NYZ052-065-067-230600-
HUDSON VALLEY

CITY           SKY/WX    TMP DP  RH WIND       PRES   REMARKS
White Plains   MOCLDY    57  56  96 NW8       29.95S
Larchmont Harb   N/A     59 N/A N/A W9          N/A
Croton O-T Hud   N/A     57 N/A N/A CALM        N/A
Newburgh       CLOUDY    57  57 100 CALM      29.98S
Montgomery     CLOUDY    58  56  93 CALM      29.96F
Poughkeepsie   FOG       56  56 100 CALM      29.96S VSB 3/4
Albany         CLOUDY    56  48  74 NW5       29.98S
$$

NJZ001-105-106-008-010-013-015-019>022-104-230600-
NEW JERSEY

CITY           SKY/WX    TMP DP  RH WIND       PRES   REMARKS
Newark/Liberty CLOUDY    59  58  96 NW7       29.96S
Teterboro      CLOUDY    60  59  96 N5        29.95R FOG
Caldwell       CLOUDY    61  57  87 NW6       29.97S
Somerville     CLOUDY    60  58  92 NW6       29.96R FOG
Linden         CLOUDY    60  58  92 NW7       29.96S
Perth Amboy      N/A     59 N/A N/A W10         N/A
Sussex         CLOUDY    59  57  93 CALM      29.98S
Andover          N/A     58  56  93 CALM      29.98S
Trenton        CLOUDY    61  60  97 NW5       29.96S
Millville      CLOUDY    63  63 100 NW6       29.95F
Atlantic City  CLOUDY    64  62  93 NW7       29.95S
Wrightstown    NOT AVBL
Toms River     CLOUDY    63  62  97 NW7       29.96S
Belmar         CLOUDY    61  60  97 W10       29.96S
$$

PAZ047>061-062-071-230600-
EASTERN PENNSYLVANIA

CITY           SKY/WX    TMP DP  RH WIND       PRES   REMARKS
Philadelphia   CLOUDY    65  59  81 N7        29.97S
Allentown      CLOUDY    61  57  87 CALM      29.97F
Scranton       CLOUDY    60  57  89 NW3       29.99S
$$

CTZ002-004>006-009-010-012-RIZ004-006-007-MAZ004-011-015-230600-
SOUTHERN NEW ENGLAND
 IN CT

CITY           SKY/WX    TMP DP  RH WIND       PRES   REMARKS
Bradley INTL   CLOUDY    53  53 100 N5        29.96F FOG
Hartford       CLOUDY    54  54 100 N6        29.96S
Danbury        CLOUDY    55  55 100 CALM      29.97S
Wtrbury/Oxford   N/A     55  52  88 N6        29.97S
Bridgeport     CLOUDY    58  56  93 NW5       29.95S
Meriden        CLOUDY    55  54  96 NW6       29.96S
New Haven      CLOUDY    56  55  97 N8        29.94F
Chester        CLOUDY    55  55 100 N7        29.94F FOG
Groton         FOG       57  56  96 CALM      29.92F VSB 1/4
Wilimantic     CLOUDY    57  55  93 N5        29.95F FOG

 IN RI

CITY           SKY/WX    TMP DP  RH WIND       PRES   REMARKS
Providence     CLOUDY    57  57 100 CALM      29.94F FOG
Block Island   LGT RAIN  57  55  94 SW10      29.94S VSB 1/2
Westerly       FOG       58  57  97 CALM      29.93F VSB 1/2
 IN MA

CITY           SKY/WX    TMP DP  RH WIND       PRES   REMARKS
Boston         DRIZZLE   53  53 100 N6        29.96F FOG
Worcester      CLOUDY    50  48  93 N5        29.95F FOG
Westfield      CLOUDY    53  53 100 N5        29.96F FOG
Provincetown   LGT RAIN  55  54  96 S7        29.95F FOG
Nantucket      HVY RAIN  55  53  93 SE21      29.95F FOG
$$

ANZ330-335-338-340-345-350-353-355-230600-
COASTAL MARINE OBSERVATIONS


STATION/POSITION TIME  SKY/WX   TEMP    WIND        PRES    VSBY  WAVE
                                AIR SEA DIR/SP/G                  HT/PER
                 (UTC)          (F)     (DEG/KT/KT) (MB)    (MI)  (FT/S)
NY HARB ENTRANCE 0350            58 56  310/  4/  4 1014.2          2/ 6
20 S FIRE ISLAND 0450            56 55  300/  2/  4 1013.2          3/ 5
GREAT SOUTH BAY  0430            60 64  330/  6/  8   N/A
23 SSW MONTAUK P 0350            56 54              1014.3          3/ 6
15 E BARNEGAT LI 0430               57                N/A           3/ 5
HUDSON CANYON    0350            60 54  190/  8/  8 1014.0          3/ 5
KINGS POINT      0448            60 57  360/ 10/ 11 1014.3
EXECUTION ROCKS  0445            59                   N/A
CENTRAL LI SOUND 0430            56     330/  6/  8   N/A           0
EASTERN LI SOUND NOT AVBL
ROBBINS REEF     0448            61     300/ 10/ 12 1014.9
$$


>>>>>>>>>>>>>>>>>>>>>>>>>>>> KEY <<<<<<<<<<<<<<<<<<<<<<<<<<<
>                                                          <
>     SKY/WX - Sky Condition/Present Weather               <
>     TMP    - Temperature in Fahrenheit                   <
>     DP     - Dew Point in Fahrenheit                     <
>     RH     - Relative Humidity in Percent                <
>     WIND   - Direction (from) and Speed in MPH           <
>     PRES   - Mean Sea Level Pressure (inches of Hg)      <
>     WCI    - Wind Chill Index                            <
>     VSB    - VISIBILITY IN MILES                         <
>     HX     - HEAT INDEX                                  <
>     TC     - TEMPERATURE IN CELSIUS                      <
>     VRB    - VARIABLE WIND DIRECTION                     <
>                                                          <
>>>>>>>>>>>>>>>>>>>>>>>>>>>> KEY <<<<<<<<<<<<<<<<<<<<<<<<<<<




USA.gov is the U.S. government's official web portal to all federal, state and local government web resources and services.